Weather History for Bolton Field, OH

Change the Weather History Date:

Sunday, January 26, 2014

  Actual Average Record
Temperature  
Mean Temperature 20 °F -  
Max Temperature 38 °F 34 °F 51 °F (2002)
Min Temperature 2 °F 20 °F 2 °F (2014)
Degree Days  
Heating Degree Days 45    
Moisture  
Dew Point 10 °F    
Average Humidity 74    
Maximum Humidity 92    
Minimum Humidity 63    
Precipitation  
Precipitation 0.02 in - - ()
Sea Level Pressure  
Sea Level Pressure 29.70 in    
Wind  
Wind Speed 8 mph (SSW)    
Max Wind Speed 22 mph    
Max Gust Speed 28 mph    
Visibility 9 miles    
Events Snow    
Averages and records for this station are not official NWS values.
T = Trace of Precipitation, MM = Missing Value Source: NWS Daily Summary

Daily Weather History Graph

Daily Weather History Graph

Search for Another Location

Airport:

Trip Planner

Search our weather history database for the weather conditions in past years. The results will help you decide how hot, cold, wet, or windy it might be!

Date:

Astronomy

Jan. 26, 2014 Rise Set
Actual Time 7:45 AM EST 5:44 PM EST
Civil Twilight 7:16 AM EST 6:13 PM EST
Nautical Twilight 6:44 AM EST 6:46 PM EST
Astronomical Twilight 6:12 AM EST 7:18 PM EST
Moon 3:22 AM EST (1/26) 1:33 PM EST (1/26)
Length of Visible Light 10h 56m
Length of Day
9h 58m
Waning Crescent, 24% of the Moon is Illuminated
Jan 26
Waning Crescent
Jan 30
New
Feb 6
First Quarter
Feb 14
Full
Feb 22
Last Quarter

Hourly Weather History & Observations

Time (EST) Temp. Windchill Dew Point Humidity Pressure Visibility Wind Dir Wind Speed Gust Speed Precip Events Conditions
12:15 AM 8.6 °F 0.1 °F -1.5 °F 64% 29.86 in 10.0 mi West 4.6 mph - N/A   Clear
12:35 AM 7.5 °F -1.1 °F -1.7 °F 66% 29.86 in 10.0 mi West 4.6 mph - N/A   Clear
12:55 AM 6.6 °F -3.7 °F -2.2 °F 67% 29.86 in 10.0 mi West 5.8 mph - N/A   Clear
1:15 AM 5.2 °F - -2.4 °F 71% 29.87 in 10.0 mi North - - N/A   Clear
1:35 AM 2.5 °F -8.6 °F -5.1 °F 71% 29.86 in 10.0 mi SW 5.8 mph - N/A   Clear
1:55 AM 2.5 °F -12.2 °F -3.5 °F 76% 29.87 in 10.0 mi SSW 9.2 mph - N/A   Clear
2:15 AM 3.7 °F -11.6 °F -2.7 °F 74% 29.87 in 10.0 mi SW 10.4 mph - N/A   Clear
2:35 AM 4.8 °F -9.3 °F -2.6 °F 72% 29.87 in 10.0 mi SW 9.2 mph - N/A   Clear
2:55 AM 3.7 °F -11.6 °F -3.3 °F 73% 29.88 in 10.0 mi SW 10.4 mph - N/A   Clear
3:15 AM 4.6 °F -8.5 °F -2.7 °F 72% 29.87 in 10.0 mi SW 8.1 mph - N/A   Clear
3:35 AM 3.9 °F -8.2 °F -2.9 °F 73% 29.85 in 10.0 mi SW 6.9 mph - N/A   Clear
3:55 AM 4.1 °F -6.7 °F -2.4 °F 75% 29.86 in 10.0 mi SW 5.8 mph - N/A   Scattered Clouds
4:15 AM 5.7 °F -7.2 °F -1.3 °F 73% 29.85 in 10.0 mi SW 8.1 mph - N/A   Scattered Clouds
4:35 AM 5.9 °F -8.9 °F -1.3 °F 72% 29.84 in 10.0 mi SSW 10.4 mph - N/A   Scattered Clouds
4:55 AM 5.9 °F -7.0 °F -1.3 °F 72% 29.83 in 10.0 mi SSW 8.1 mph - N/A   Clear
5:15 AM 4.8 °F -8.3 °F -2.2 °F 73% 29.81 in 10.0 mi South 8.1 mph - N/A   Clear
5:35 AM 5.0 °F -5.6 °F -2.0 °F 73% 29.80 in 10.0 mi South 5.8 mph - N/A   Clear
5:55 AM 4.3 °F -6.5 °F -2.6 °F 73% 29.80 in 10.0 mi South 5.8 mph - N/A   Clear
6:15 AM 4.8 °F -5.8 °F -2.2 °F 73% 29.79 in 10.0 mi South 5.8 mph - N/A   Mostly Cloudy
7:23 AM 8.6 °F -2.6 °F -0.4 °F 67% 22.97 in 19.0 mi SSE 6.9 mph - N/A   Overcast
7:50 AM 8.6 °F -2.6 °F 1.4 °F 73% 29.76 in 10.0 mi South 6.9 mph - N/A   Overcast
8:03 AM 8.6 °F -1.3 °F 1.4 °F 73% 29.74 in 2.5 mi SSE 5.8 mph - N/A Snow Light Snow
8:08 AM 8.6 °F -1.3 °F 1.4 °F 73% 29.74 in 1.0 mi SSE 5.8 mph - N/A Snow Light Snow
8:16 AM 8.6 °F 0.1 °F 1.4 °F 73% 29.75 in 0.2 mi SSE 4.6 mph - N/A Snow Light Snow
8:50 AM 8.6 °F - 5.0 °F 85% 29.74 in 0.2 mi North - - N/A Snow Snow
8:53 AM 8.6 °F -2.6 °F 5.0 °F 85% 29.74 in 0.2 mi SSE 6.9 mph - N/A Snow Snow
9:55 AM 10.4 °F - 6.8 °F 85% 29.71 in 2.0 mi North - - N/A Snow Light Snow
10:16 AM 10.4 °F -2.4 °F 6.8 °F 85% 29.70 in 0.5 mi SSE 9.2 mph - N/A Snow Light Snow
10:32 AM 10.4 °F -2.4 °F 8.6 °F 92% 29.69 in 1.5 mi SSE 9.2 mph - N/A Snow Light Snow
10:50 AM 10.4 °F -2.4 °F 8.6 °F 92% 29.69 in 1.5 mi SE 9.2 mph - N/A Snow Light Snow
11:50 AM 14.0 °F -0.2 °F 8.6 °F 79% 29.65 in 10.0 mi SSE 12.7 mph - N/A   Overcast
12:50 PM 17.6 °F 4.3 °F 8.6 °F 68% 29.59 in 10.0 mi SSE 12.7 mph - N/A   Overcast
1:50 PM 19.4 °F 8.6 °F 10.4 °F 68% 29.57 in 10.0 mi South 9.2 mph - N/A   Overcast
2:50 PM 23.0 °F 14.7 °F 12.2 °F 63% 29.55 in 10.0 mi South 6.9 mph - N/A   Overcast
3:50 PM 26.6 °F 21.2 °F 17.6 °F 69% 29.53 in 10.0 mi SSE 4.6 mph - N/A   Overcast
4:55 PM 35.6 °F 26.2 °F 24.8 °F 65% 29.55 in 10.0 mi SW 15.0 mph - N/A   Overcast
5:55 PM 37.4 °F 27.5 °F 26.6 °F 65% 29.57 in 10.0 mi SW 18.4 mph - N/A   Overcast
6:35 PM 38.7 °F 28.3 °F 27.5 °F 64% 29.58 in 10.0 mi SW 21.9 mph 27.6 mph 0.02 in   Overcast
6:50 PM 37.4 °F 28.2 °F 26.6 °F 65% 29.58 in 10.0 mi SW 16.1 mph - N/A   Scattered Clouds
6:55 PM 37.6 °F 28.1 °F 27.1 °F 66% 29.58 in 10.0 mi SW 17.3 mph 23.0 mph 0.02 in   Scattered Clouds
7:15 PM 35.8 °F 28.8 °F 26.4 °F 69% 29.60 in 10.0 mi SW 9.2 mph - N/A   Clear
7:35 PM 33.1 °F - 25.5 °F 74% 29.60 in 10.0 mi North - - N/A   Clear
7:55 PM 32.0 °F - 24.8 °F 75% 29.60 in 10.0 mi North - - N/A   Scattered Clouds
8:15 PM 31.8 °F - 25.0 °F 76% 29.59 in 10.0 mi North - - N/A   Scattered Clouds
8:35 PM 29.3 °F - 23.7 °F 80% 29.59 in 10.0 mi North - - N/A   Clear
8:55 PM 28.9 °F - 23.2 °F 79% 29.59 in 10.0 mi North - - N/A   Clear
9:15 PM 30.0 °F 24.1 °F 23.7 °F 77% 29.58 in 10.0 mi South 5.8 mph - N/A   Scattered Clouds
9:35 PM 29.8 °F - 24.3 °F 80% 29.58 in 10.0 mi North - - N/A   Overcast
9:55 PM 30.0 °F - 24.4 °F 80% 29.56 in 10.0 mi Calm Calm - N/A   Overcast
10:15 PM 29.3 °F 23.2 °F 25.0 °F 84% 29.56 in 10.0 mi SSE 5.8 mph - N/A   Overcast
10:35 PM 31.3 °F 25.6 °F 25.2 °F 78% 29.54 in 10.0 mi South 5.8 mph - N/A   Mostly Cloudy
10:55 PM 30.7 °F 24.9 °F 24.1 °F 76% 29.54 in 10.0 mi South 5.8 mph - N/A   Mostly Cloudy
11:15 PM 32.0 °F - 25.3 °F 76% 29.54 in 10.0 mi North - - N/A   Overcast
11:35 PM 32.2 °F - 26.2 °F 79% 29.53 in 10.0 mi North - - N/A   Overcast
11:55 PM 33.8 °F - 27.3 °F 77% 29.52 in 10.0 mi North - - N/A   Overcast